Date String (YYYY-MM-DD hh:mm:ss) UTC,Instrument flags,absolute air pressure of the measurement (hPa),sample flow rate (lpm),inlet stack bypass flow (lpm),air temperature of the measurement (°C),ambient temperature measured by the external sensor (°C),aerosol sample conditioner tube jacket temperature (°C),OPC LED temperature (°C),internal box temperature (°C),relative humidity of the measurement (%),span deviation,mass concentration of particles derived from Lorenz-Mie calculation of OPC scattering (μg/m³),mass concentration of particles derived from Lorenz-Mie calculation of OPC scattering (μg/m³),mass concentration of particles derived from Lorenz-Mie calculation of OPC scattering (μg/m³)
DateTimeUTC,F1_M11,P_M11,Q1_M11,Q2_M11,T1_M11,T2_M11,T3_M11,T4_M11,T5_M11,U1_M11,ZSPAN_M11,X2_M11,X0_M11,X1_M11
2023-06-21 14:00:00,SystemResetWarning,0831.5,5.00,000.00,030.0,028.5,000.0,038.6,031.5,19.3,0000.0,0005.13,0013.10,0004.03
2023-06-21 14:01:00,SystemResetWarning,0831.5,5.01,000.00,030.1,028.6,000.0,038.6,031.6,18.2,0000.0,0005.12,0012.83,0004.02
2023-06-21 14:02:00,SystemResetWarning,0831.5,5.01,000.00,030.1,028.6,000.0,038.6,031.6,17.9,0000.0,0005.11,0013.55,0004.01
2023-06-21 14:03:00,SystemResetWarning,0831.5,5.00,000.00,030.1,028.2,000.0,038.6,031.7,17.6,0000.0,0005.12,0013.99,0003.99
2023-06-21 14:04:00,SystemResetWarning,0831.5,4.99,000.00,030.1,026.4,000.0,038.5,031.7,17.4,0000.0,0005.14,0013.93,0003.98
2023-06-21 14:05:00,SystemResetWarning,0831.5,5.02,000.00,030.1,026.1,000.0,038.5,031.7,18.9,0000.0,0005.10,0014.40,0003.96
2023-06-21 14:06:00,SystemResetWarning,0831.5,5.01,000.00,030.1,026.4,000.0,038.5,031.4,17.7,0000.0,0005.08,0014.92,0003.95
2023-06-21 14:07:00,SystemResetWarning,0831.5,4.99,000.00,030.0,026.7,000.0,038.5,031.3,18.0,0000.0,0005.04,0014.76,0003.93
2023-06-21 14:08:00,SystemResetWarning,0831.5,5.00,000.00,030.0,027.0,000.0,038.5,031.3,18.0,0000.0,0005.05,0014.47,0003.92
2023-06-21 14:09:00,SystemResetWarning,0831.5,5.00,000.00,030.0,027.3,000.0,038.5,031.3,18.2,0000.0,0005.04,0014.71,0003.91
2023-06-21 14:10:00,SystemResetWarning,0831.5,5.01,000.00,030.0,027.6,000.0,038.5,031.3,18.1,0000.0,0004.97,0014.01,0003.91
2023-06-21 14:11:00,SystemResetWarning,0831.5,5.01,000.00,030.0,027.8,000.0,038.5,031.4,18.1,0000.0,0005.03,0013.81,0003.91
2023-06-21 14:12:00,SystemResetWarning,0831.5,5.00,000.00,030.0,028.0,000.0,038.5,031.4,18.8,0000.0,0005.04,0015.11,0003.89
2023-06-21 14:13:00,SystemResetWarning,0831.6,4.99,000.00,030.0,028.1,000.0,038.6,031.5,18.2,0000.0,0005.01,0015.43,0003.89
2023-06-21 14:14:00,SystemResetWarning,0831.6,5.00,000.00,030.0,028.2,000.0,038.6,031.5,19.6,0000.0,0005.03,0015.15,0003.90
2023-06-21 14:15:00,SystemResetWarning,0831.6,4.99,000.00,030.0,028.3,000.0,038.6,031.5,20.1,0000.0,0005.01,0015.33,0003.89
2023-06-21 14:16:00,SystemResetWarning,0831.6,4.99,000.00,030.1,028.3,000.0,038.6,031.6,20.8,0000.0,0005.03,0015.44,0003.89
2023-06-21 14:17:00,SystemResetWarning,0831.6,4.98,000.00,030.1,026.6,000.0,038.5,031.6,21.8,0000.0,0005.02,0014.91,0003.88
2023-06-21 14:18:00,SystemResetWarning,0831.7,5.00,000.00,030.0,024.7,000.0,038.4,031.4,23.1,0000.0,0005.08,0014.82,0003.89
2023-06-21 14:19:00,SystemResetWarning,0831.7,5.01,000.00,030.0,024.8,000.0,038.4,031.4,24.0,0000.0,0005.09,0014.98,0003.89
2023-06-21 14:20:00,SystemResetWarning,0831.6,5.01,000.00,029.9,025.3,000.0,038.4,031.1,23.4,0000.0,0005.09,0015.15,0003.89
2023-06-21 14:21:00,SystemResetWarning,0831.6,4.99,000.00,029.8,025.7,000.0,038.4,031.0,24.1,0000.0,0005.11,0015.24,0003.89
2023-06-21 14:22:00,SystemResetWarning,0831.6,5.00,000.00,029.8,026.2,000.0,038.4,031.0,24.5,0000.0,0005.08,0015.35,0003.91
2023-06-21 14:23:00,SystemResetWarning,0831.7,5.00,000.00,029.7,026.6,000.0,038.4,031.0,25.3,0000.0,0005.12,0014.04,0003.95
2023-06-21 14:24:00,SystemResetWarning,0831.7,5.00,000.00,029.7,026.9,000.0,038.4,031.0,26.1,0000.0,0005.15,0013.05,0003.98
2023-06-21 14:25:00,SystemResetWarning,0831.7,5.00,000.00,029.7,027.2,000.0,038.3,031.1,25.9,0000.0,0005.21,0014.01,0004.03
2023-06-21 14:26:00,SystemResetWarning,0831.7,5.01,000.00,029.7,027.4,000.0,038.3,031.1,26.1,0000.0,0005.32,0014.14,0004.10
2023-06-21 14:27:00,SystemResetWarning,0831.7,4.99,000.00,029.7,027.7,000.0,038.3,031.2,26.3,0000.0,0005.42,0015.41,0004.16
2023-06-21 14:28:00,SystemResetWarning,0832.3,4.99,000.00,029.7,027.8,000.0,038.3,031.2,26.1,0000.0,0005.53,0017.54,0004.23
2023-06-21 14:29:00,SystemResetWarning,0831.9,5.01,000.00,029.8,028.0,000.0,038.3,031.2,26.0,0000.0,0005.55,0019.07,0004.29
2023-06-21 14:30:00,SystemResetWarning,0831.9,5.01,000.00,029.8,028.1,000.0,038.4,031.3,26.7,0000.0,0005.59,0018.78,0004.36
2023-06-21 14:31:00,SystemResetWarning,0831.9,5.01,000.00,029.8,028.2,000.0,038.4,031.3,26.4,0000.0,0005.66,0018.39,0004.43
2023-06-21 14:32:00,SystemResetWarning,0831.9,4.99,000.00,029.8,028.3,000.0,038.4,031.3,26.1,0000.0,0005.75,0018.69,0004.49
2023-06-21 14:33:00,SystemResetWarning,0831.9,5.00,000.00,029.9,028.4,000.0,038.4,031.4,26.8,0000.0,0005.84,0019.11,0004.52
2023-06-21 14:34:00,SystemResetWarning,0831.9,4.99,000.00,029.9,028.4,000.0,038.4,031.4,26.8,0000.0,0005.91,0020.09,0004.56
2023-06-21 14:35:00,SystemResetWarning,0831.8,5.00,000.00,029.9,026.9,000.0,038.4,031.5,26.5,0000.0,0005.95,0021.53,0004.58
2023-06-21 14:36:00,SystemResetWarning,0832.3,5.00,000.00,029.9,025.0,000.0,038.3,031.3,27.5,0000.0,0005.91,0020.57,0004.59
2023-06-21 14:37:00,SystemResetWarning,0832.2,5.00,000.00,029.8,024.7,000.0,038.2,031.2,26.5,0000.0,0005.91,0022.10,0004.60
2023-06-21 14:38:00,SystemResetWarning,0832.1,5.01,000.00,029.7,025.1,000.0,038.2,030.9,26.5,0000.0,0005.91,0020.75,0004.62
2023-06-21 14:39:00,SystemResetWarning,0831.9,5.00,000.00,029.6,025.5,000.0,038.2,030.9,27.2,0000.0,0005.92,0019.23,0004.64
2023-06-21 14:40:00,SystemResetWarning,0831.9,4.99,000.00,029.6,026.0,000.0,038.2,030.9,27.0,0000.0,0005.91,0017.82,0004.65
2023-06-21 14:41:00,SystemResetWarning,0831.9,5.00,000.00,029.6,026.4,000.0,038.2,030.9,27.4,0000.0,0005.94,0017.62,0004.66
2023-06-21 14:42:00,SystemResetWarning,0831.9,5.00,000.00,029.6,026.8,000.0,038.2,030.9,26.4,0000.0,0005.98,0018.38,0004.66
2023-06-21 14:43:00,SystemResetWarning,0832.0,5.00,000.00,029.6,027.1,000.0,038.2,031.0,26.8,0000.0,0006.03,0019.12,0004.67
2023-06-21 14:44:00,SystemResetWarning,0832.0,5.01,000.00,029.6,027.3,000.0,038.2,031.0,27.2,0000.0,0006.06,0019.60,0004.71
2023-06-21 14:45:00,SystemResetWarning,0832.0,4.99,000.00,029.6,027.6,000.0,038.2,031.1,27.1,0000.5,0006.10,0020.00,0004.74
2023-06-21 14:46:00,SystemResetWarning,0832.0,4.99,000.00,029.6,027.7,000.0,038.2,031.1,27.2,0000.0,0006.18,0018.87,0004.78
2023-06-21 14:47:00,SystemResetWarning,0832.0,4.99,000.00,029.6,027.9,000.0,038.2,031.1,28.1,0000.1,0006.27,0018.90,0004.84
2023-06-21 14:48:00,SystemResetWarning,0832.0,5.00,000.00,029.7,028.0,000.0,038.2,031.2,28.7,0003.1,0006.30,0017.33,0004.89
2023-06-21 14:49:00,SystemResetWarning,0832.0,5.01,000.00,029.7,028.1,000.0,038.2,031.2,28.9,0000.3,0006.38,0018.52,0004.95
2023-06-21 14:50:00,SystemResetWarning,0832.0,5.01,000.00,029.7,028.2,000.0,038.2,031.3,29.3,0003.7,0006.45,0020.33,0005.03
2023-06-21 14:51:00,SystemResetWarning,0832.0,5.00,000.00,029.8,028.3,000.0,038.3,031.3,29.9,0003.8,0006.55,0020.51,0005.13
2023-06-21 14:52:00,SystemResetWarning,0832.1,5.00,000.00,029.8,028.4,000.0,038.3,031.3,29.8,0003.7,0006.66,0020.85,0005.25
2023-06-21 14:53:00,SystemResetWarning,0832.1,4.99,000.00,029.8,027.2,000.0,038.2,031.4,30.3,0003.9,0006.71,0020.00,0005.37
2023-06-21 14:54:00,SystemResetWarning,0832.1,5.00,000.00,029.8,025.1,000.0,038.2,031.3,30.7,0003.7,0006.83,0019.54,0005.50
2023-06-21 14:55:00,SystemResetWarning,0832.1,5.00,000.00,029.7,024.6,000.0,038.1,031.3,30.9,0003.4,0006.99,0019.36,0005.63
2023-06-21 14:56:00,SystemResetWarning,0832.1,5.01,000.00,029.7,024.9,000.0,038.1,031.0,31.6,0003.1,0007.12,0018.66,0005.76
2023-06-21 14:57:00,SystemResetWarning,0832.1,5.00,000.00,029.6,025.4,000.0,038.1,030.8,32.0,0002.7,0007.30,0019.99,0005.90
2023-06-21 14:58:00,SystemResetWarning,0832.1,4.99,000.00,029.5,025.9,000.0,038.1,030.8,32.6,0002.5,0007.46,0021.21,0006.03
2023-06-21 14:59:00,SystemResetWarning,0832.2,5.00,000.00,029.5,026.3,000.0,038.1,030.8,32.8,0002.1,0007.60,0021.78,0006.18
